SCP
0 0 0 0 0 0 0 0 0 0 0 0 0 0 0 0 0 0 0 0 0 0 0 0 0 0 0 0 0 0 0 0 0 0 0 0 0 0 0 0 0 0 0
0 0 0 0 0 0 0 0 0 0 0 0 0 0 0 0 0 0 0 0 0 0 0 0 0 0 0 0 0 0 0 0 0 0 0 0 0 0 0 0 0 0 0
0 0 0 0 0 0 0 0 0 0 0 0 0 0 0 0 0 0 0 0 0 0 0 0 0 0 0 0 0 0 0 0 0 0 0 0 0 0 0 0 0 0 0
0 0 0 0 0 0 0 0 0 0 0 0 0 0 0 0 0 0 0 0 0 0 0 0 0 0 0 0 0 0 0 0 0 0 0 0 0 0 0 0 0 0 0
0 0 0 0 0 0 0 0 0 0 0 0 0 0 0 0 0 0 0 0 0 0 0 0 0 0 0 0 0 0 0 0 0 0 0 0 0 0 0 0 0 0 0
0 0 0 0 0 0 0 0 0 0 0 0 0 0 0 0 0 0 0 0 0 0 0 0 0 0 0 0 0 0 0 0 0 0 0 0 0 0 0 0 0 0 0
0 0 0 0 0 0 0 0 0 0 0 0 0 0 0 0 0 0 0 0 0 0 0 0 0 0 0 0 0 0 0 0 0 0 0 0 0 0 0 0 0 0 0
0 0 0 0 0 0 0 0 0 0 0 0 0 0 0 0 0 0 0 0 0 0 0 0 0 0 0 0 0 0 0 0 0 0 0 0 0 0 0 0 0 0 0
0 0 0 0 0 0 0 0 0 0 0 0 0 0 0 0 0 0 0 0 0 0 0 0 0 0 0 0 0 0 0 0 0 0 0 -0 -0 -0 -0 -0 -0 0 0
0 0 0 0 0 0 0 0 0 0 0 0 0 0 0 0 0 0 0 0 0 0 0 0 0 0 0 0 0 0 0 0 0 0 0 0 -0 -0 -0 -0 -0 -0 0
0 0 0 0 0 0 0 0 0 0 0 0 0 0 0 0 0 0 0 0 0 0 0 0 0 0 0 0 0 0 0 0 0 0 0 0 -0 0 -0 -0 -0 -0 -0
0 0 0 0 0 0 0 0 0 0 0 0 0 0 0 0 0 0 0 0 0 0 0 0 0 0 0 0 0 0 0 0 0 0 0 0 0 -0 0 0 0 0 0
0 0 0 0 0 0 0 0 0 0 0 0 0 0 0 0 0 0 0 0 0 0 0 0 0 0 0 0 0 0 0 0 0 0 0 0 0 0 0 0 0 0 0
0 0 0 0 0 0 0 0 0 0 0 0 0 0 0 0 0 0 0 0 0 0 0 0 0 0 0 0 0 0 0 0 0 0 0 0 0 0 0 0 0 0 0
0 0 0 0 0 0 0 0 0 0 0 0 0 0 0 0 0 0 0 0 0 0 0 0 0 0 0 0 0 0 0 0 0 0 0 0 0 0 0 0 0 0 0
0 0 0 0 0 0 0 0 0 0 0 0 0 0 0 0 0 0 0 0 0 0 0 0 0 0 0 0 0 0 0 0 0 0 0 0 0 0 0 0 0 0 0
0 0 0 0 0 0 0 0 0 0 0 0 0 0 0 0 0 0 0 0 0 0 0 0 0 0 0 0 0 0 0 0 0 0 0 0 0 0 0 0 0 0 0
0 0 0 0 0 0 0 0 0 0 0 0 0 0 0 0 0 0 0 0 0 0 0 0 0 0 0 0 0 0 0 0 0 0 0 0 0 0 0 0 0 0 0
0 0 0 0 0 0 0 0 0 0 0 0 0 0 0 0 0 0 0 0 0 0 0 0 0 0 0 0 0 0 0 0 0 0 0 0 0 0 0 0 0 0 0
0 0 0 0 0 0 0 0 0 0 0 0 0 0 0 0 0 0 0 0 0 0 0 0 0 0 0 0 0 0 0 0 0 0 0 0 0 0 0 0 0 0 0
0 0 0 0 0 0 0 0 0 0 0 0 0 0 0 0 0 0 0 0 0 0 0 0 0 0 0 0 0 0 0 0 0 0 0 0 0 0 0 0 0 0 0
0 0 0 0 0 0 0 0 0 0 0 0 0 0 0 0 0 0 0 0 0 0 0 0 0 0 0 0 0 0 0 0 0 0 0 0 0 0 0 0 0 0 0
0 0 0 0 0 0 0 0 0 0 0 0 0 0 0 0 0 0 0 0 0 0 0 0 0 0 0 0 0 0 0 0 0 0 0 0 0 0 0 0 0 0 0
0 0 0 0 0 0 0 0 0 0 0 0 0 0 0 0 0 -0 -0 -0 -0 -0 -0 -0 -0 -0 -0 -0 0 0 0 0 0 0 0 0 0 0 0 0 0 0 0
0 0 0 0 0 0 0 0 0 0 0 0 0 0 0 0 0 0 -0 -0 -0 -0 -0 -0 -0 -0 -0 -0 -0 -0 -0 -0 -0 -0 0 0 0 0 0 0 0 0 0
0 0 0 0 0 0 0 0 0 0 0 0 0 0 0 0 0 0 0 0 0 -0 -0 0 0 -0 -0 -0 -0 -0 -0 -0 -0 -0 -0 -0 0 0 0 0 0 0 0
Wind_Speed_500mb
37 33 30 28 27 26 24 22 21 20 18 17 16 14 13 12 10 9 7 5 4 3 4 6 9 12 14 16 18 20 24 29 34 35 35 39 44 42 52 58 63 69 73
37 34 32 30 28 25 24 22 21 20 19 18 17 16 14 13 12 10 8 7 6 4 2 3 5 9 10 12 14 16 19 24 29 32 32 32 38 43 45 52 61 68 74
39 37 35 31 28 26 24 23 22 21 20 20 18 18 16 14 13 11 9 8 7 5 4 3 3 5 5 6 8 12 15 21 27 30 30 31 37 40 42 48 55 64 72
42 39 35 32 29 26 25 24 22 22 21 20 19 19 18 16 14 13 12 10 9 7 6 4 3 2 3 2 3 5 10 16 22 27 28 31 36 42 44 46 54 58 66
44 42 37 35 33 31 28 26 25 22 21 21 21 20 19 17 17 16 14 12 11 9 8 7 5 4 2 2 1 2 5 11 16 21 24 26 33 38 45 48 47 48 58
44 42 39 38 34 31 30 28 26 24 24 22 21 21 21 20 20 19 17 16 15 14 13 11 11 10 8 8 5 4 3 4 8 14 20 23 27 32 36 38 42 45 47
43 44 42 38 35 33 32 30 27 24 23 21 22 22 21 22 22 20 19 19 18 18 17 16 16 16 15 12 14 10 9 6 5 9 14 17 19 24 29 31 34 39 42
42 43 43 41 37 35 32 30 28 27 24 24 24 23 24 23 24 22 23 23 23 22 21 21 21 21 21 20 18 17 15 13 10 8 8 10 13 16 19 22 25 25 31
43 42 42 40 38 36 33 31 30 28 27 25 24 26 25 24 26 27 28 27 27 25 25 27 25 24 24 26 22 25 21 20 18 15 11 7 5 7 10 12 15 18 21
42 37 36 36 35 33 31 31 30 29 27 29 28 28 27 26 30 29 31 30 31 28 29 29 29 26 28 30 30 27 29 25 26 25 20 17 11 8 8 11 11 14 18
39 38 34 31 29 28 29 30 29 30 32 32 30 30 30 29 30 31 32 35 33 33 32 31 31 31 32 34 34 34 30 33 35 32 31 26 22 18 16 14 15 15 15
37 32 29 28 27 26 24 25 26 27 28 29 29 29 29 30 30 32 36 39 36 39 36 32 34 37 38 38 40 36 36 41 41 41 38 35 35 31 26 24 21 21 20
34 32 30 27 24 21 17 14 13 14 16 16 19 20 22 28 31 33 38 42 44 44 41 38 40 42 43 46 44 42 42 49 48 49 46 40 41 43 39 34 32 29 27
33 31 28 24 21 18 15 12 9 6 6 8 11 12 16 22 26 29 35 42 46 49 49 47 46 45 48 52 51 50 51 52 54 53 52 49 48 49 48 47 43 41 40
37 34 31 27 23 19 14 10 8 8 10 13 15 19 22 24 22 29 32 36 40 44 51 57 57 55 55 58 57 54 53 58 62 60 58 56 55 54 53 55 54 53 52
35 30 24 18 14 9 3 4 10 15 19 22 25 28 29 33 33 33 36 41 42 45 51 55 56 58 58 59 63 62 61 63 65 63 65 64 61 61 58 56 63 61 60
17 12 7 6 8 13 17 21 25 27 27 28 31 33 35 36 36 36 38 40 41 46 55 57 59 58 59 57 60 61 64 65 71 66 67 68 68 66 65 63 62 67 68
11 13 16 19 21 22 24 26 27 29 30 31 34 33 35 38 39 40 40 44 45 43 48 52 55 58 60 59 55 56 55 54 59 64 63 65 68 68 69 69 68 67 69
16 16 16 18 21 23 25 27 29 31 33 34 33 33 32 36 39 40 38 40 44 45 45 49 51 52 56 59 55 53 51 51 49 47 53 59 62 67 69 69 70 68 69
14 16 18 20 22 25 26 27 29 32 34 35 36 34 34 37 38 36 33 35 38 41 41 43 44 43 45 50 54 53 53 51 51 50 46 45 48 53 65 67 64 66 69
17 18 20 22 25 26 26 28 30 31 33 34 35 35 35 35 36 36 35 34 32 35 38 39 40 43 43 43 42 42 45 48 52 51 48 45 43 46 49 57 62 63 60
17 18 19 20 20 21 23 25 26 25 23 22 22 23 25 27 27 28 28 30 30 31 32 35 38 39 39 35 34 35 38 40 39 40 40 43 45 44 44 47 51 57 60
21 21 20 19 20 22 24 24 22 19 15 12 12 15 16 18 17 19 22 22 25 25 23 25 26 27 27 28 28 30 31 32 32 32 36 36 38 41 42 44 46 48 52
24 24 23 23 23 24 24 22 20 19 16 13 12 13 12 12 13 15 15 16 15 13 17 20 21 22 24 26 29 30 28 27 26 28 31 35 38 39 42 44 45 46 47
26 26 25 26 27 27 27 24 23 23 24 20 16 14 11 8 8 9 10 11 12 13 12 15 15 17 21 22 20 22 26 29 29 28 29 34 38 40 42 45 46 48 48
30 30 30 30 31 31 30 31 31 31 30 27 24 21 19 15 13 12 13 13 13 14 15 15 18 21 23 25 26 26 26 22 24 28 32 37 42 43 42 46 48 49 51
Wind_Direction_500mb
202 206 208 207 207 207 207 207 207 207 205 205 206 203 202 197 191 187 179 169 152 136 99 81 73 66 63 66 68 62 49 42 38 34 30 30 32 40 37 36 42 43 42
203 204 204 204 206 207 208 209 210 209 207 208 210 211 210 206 202 198 193 187 199 182 139 96 73 71 65 70 71 68 55 45 40 34 39 43 40 40 46 41 45 47 48
202 202 202 204 205 207 209 210 211 210 211 212 211 211 212 212 211 209 208 209 211 206 197 173 117 88 63 70 78 73 59 43 36 35 36 46 52 53 54 52 50 50 51
203 202 203 205 206 208 210 212 213 215 213 214 215 215 218 220 218 217 217 221 223 217 220 214 182 157 123 76 69 75 60 47 38 32 33 43 51 53 55 56 53 52 55
203 203 203 205 205 208 211 214 216 216 217 218 220 221 223 223 225 224 227 231 233 232 234 235 239 245 228 227 211 334 60 46 36 38 38 44 53 55 52 53 53 50 51
205 204 205 208 209 211 213 217 218 216 217 222 223 225 227 228 228 228 230 236 238 239 240 241 245 248 249 254 241 277 323 36 31 35 47 46 53 54 55 48 48 47 47
204 205 208 212 213 214 216 219 220 220 223 225 231 233 232 234 238 240 239 242 243 245 249 253 253 255 256 255 261 249 262 286 333 8 37 45 46 54 51 48 37 44 44
203 206 209 211 213 217 219 223 223 225 224 228 232 235 237 238 244 244 245 245 248 249 249 254 256 258 259 258 258 259 263 268 279 304 345 39 40 39 47 43 39 28 39
203 205 208 211 213 217 222 226 227 228 230 233 235 239 241 241 246 248 250 251 252 254 254 256 256 257 260 261 257 266 258 262 263 266 281 312 2 16 16 26 26 24 18
200 201 205 208 213 218 219 225 228 229 231 233 236 241 244 243 249 254 258 259 259 260 259 261 263 261 260 263 266 259 266 265 261 264 263 269 279 293 309 321 341 3 12
192 196 200 204 209 212 217 222 226 229 231 235 237 242 248 249 252 257 260 265 267 264 262 261 262 260 256 260 261 261 264 261 265 261 267 263 265 269 276 285 299 315 332
188 188 191 196 201 207 211 218 225 233 238 242 244 247 251 255 256 259 263 267 266 268 267 263 260 258 258 258 260 263 262 262 261 263 261 266 267 266 264 274 279 288 297
176 178 181 185 189 192 199 209 220 232 240 247 256 258 256 257 258 259 262 267 268 268 267 266 260 258 258 259 260 262 260 262 262 261 260 254 263 264 266 264 269 273 280
161 160 157 152 144 140 142 151 157 193 234 256 271 275 262 260 268 263 262 262 265 268 272 267 263 260 256 258 258 260 264 266 268 268 267 265 259 263 266 267 269 270 271
139 133 130 130 130 133 139 147 166 215 242 255 263 271 274 272 264 267 272 272 273 275 272 270 268 263 259 259 260 260 263 269 270 272 271 271 269 263 265 270 269 270 272
131 131 131 130 128 131 144 282 285 279 282 287 286 286 286 290 287 283 281 279 275 271 269 270 272 273 271 268 267 265 262 266 268 269 272 272 269 269 267 265 270 270 272
139 144 164 214 253 268 275 277 278 279 281 282 282 285 289 289 287 287 287 285 282 278 275 275 274 273 275 273 272 270 268 268 267 272 268 270 269 267 266 265 265 269 269
227 250 262 267 272 276 278 279 281 282 284 288 289 291 290 289 289 289 289 287 285 281 279 278 279 280 282 281 279 278 279 274 275 272 270 267 268 268 266 264 264 266 269
257 269 276 280 283 284 286 288 290 293 295 297 295 295 291 287 287 287 286 283 283 283 282 281 280 279 279 282 281 280 282 282 282 279 274 272 269 265 265 265 266 265 266
272 276 279 282 285 287 291 296 300 303 305 306 304 301 297 294 292 289 279 275 277 281 285 285 288 288 286 284 285 285 284 281 282 283 282 281 278 276 266 266 267 265 265
272 278 281 285 289 293 296 300 301 302 301 301 302 302 300 295 292 290 291 290 288 284 282 282 286 288 289 289 289 290 290 287 285 281 285 286 285 283 282 273 267 267 268
266 271 274 276 278 282 285 287 287 288 292 298 303 306 309 307 299 298 295 296 297 295 293 289 285 282 282 284 284 285 289 292 294 296 294 291 289 287 287 285 282 275 269
262 264 262 260 262 268 271 273 274 278 287 304 328 333 323 313 302 296 290 292 294 299 300 292 288 289 289 289 291 289 287 293 297 296 297 297 299 297 294 291 289 286 282
264 261 260 262 266 268 268 268 263 266 268 281 300 316 327 332 323 313 307 297 288 285 289 295 295 296 301 296 291 289 290 290 290 295 300 302 300 298 299 300 299 297 294
260 261 265 266 270 270 265 260 260 259 259 265 271 279 283 301 314 323 329 319 318 322 319 318 333 329 323 335 325 307 296 293 291 288 290 295 298 299 298 297 298 300 298
264 264 264 265 266 262 258 259 261 260 260 261 264 263 262 266 277 286 292 299 303 311 319 327 332 332 335 336 337 335 338 325 302 292 286 285 288 293 296 299 301 300 299
Wind_Speed_850mb
37 33 30 28 27 26 24 22 21 20 18 17 16 14 13 12 10 9 7 5 4 3 4 6 9 12 14 16 18 20 24 29 34 35 35 39 44 42 52 58 63 69 73
37 34 32 30 28 25 24 22 21 20 19 18 17 16 14 13 12 10 8 7 6 4 2 3 5 9 10 12 14 16 19 24 29 32 32 32 38 43 45 52 61 68 74
39 37 35 31 28 26 24 23 22 21 20 20 18 18 16 14 13 11 9 8 7 5 4 3 3 5 5 6 8 12 15 21 27 30 30 31 37 40 42 48 55 64 72
42 39 35 32 29 26 25 24 22 22 21 20 19 19 18 16 14 13 12 10 9 7 6 4 3 2 3 2 3 5 10 16 22 27 28 31 36 42 44 46 54 58 66
44 42 37 35 33 31 28 26 25 22 21 21 21 20 19 17 17 16 14 12 11 9 8 7 5 4 2 2 1 2 5 11 16 21 24 26 33 38 45 48 47 48 58
44 42 39 38 34 31 30 28 26 24 24 22 21 21 21 20 20 19 17 16 15 14 13 11 11 10 8 8 5 4 3 4 8 14 20 23 27 32 36 38 42 45 47
43 44 42 38 35 33 32 30 27 24 23 21 22 22 21 22 22 20 19 19 18 18 17 16 16 16 15 12 14 10 9 6 5 9 14 17 19 24 29 31 34 39 42
42 43 43 41 37 35 32 30 28 27 24 24 24 23 24 23 24 22 23 23 23 22 21 21 21 21 21 20 18 17 15 13 10 8 8 10 13 16 19 22 25 25 31
43 42 42 40 38 36 33 31 30 28 27 25 24 26 25 24 26 27 28 27 27 25 25 27 25 24 24 26 22 25 21 20 18 15 11 7 5 7 10 12 15 18 21
42 37 36 36 35 33 31 31 30 29 27 29 28 28 27 26 30 29 31 30 31 28 29 29 29 26 28 30 30 27 29 25 26 25 20 17 11 8 8 11 11 14 18
39 38 34 31 29 28 29 30 29 30 32 32 30 30 30 29 30 31 32 35 33 33 32 31 31 31 32 34 34 34 30 33 35 32 31 26 22 18 16 14 15 15 15
37 32 29 28 27 26 24 25 26 27 28 29 29 29 29 30 30 32 36 39 36 39 36 32 34 37 38 38 40 36 36 41 41 41 38 35 35 31 26 24 21 21 20
34 32 30 27 24 21 17 14 13 14 16 16 19 20 22 28 31 33 38 42 44 44 41 38 40 42 43 46 44 42 42 49 48 49 46 40 41 43 39 34 32 29 27
33 31 28 24 21 18 15 12 9 6 6 8 11 12 16 22 26 29 35 42 46 49 49 47 46 45 48 52 51 50 51 52 54 53 52 49 48 49 48 47 43 41 40
37 34 31 27 23 19 14 10 8 8 10 13 15 19 22 24 22 29 32 36 40 44 51 57 57 55 55 58 57 54 53 58 62 60 58 56 55 54 53 55 54 53 52
35 30 24 18 14 9 3 4 10 15 19 22 25 28 29 33 33 33 36 41 42 45 51 55 56 58 58 59 63 62 61 63 65 63 65 64 61 61 58 56 63 61 60
17 12 7 6 8 13 17 21 25 27 27 28 31 33 35 36 36 36 38 40 41 46 55 57 59 58 59 57 60 61 64 65 71 66 67 68 68 66 65 63 62 67 68
11 13 16 19 21 22 24 26 27 29 30 31 34 33 35 38 39 40 40 44 45 43 48 52 55 58 60 59 55 56 55 54 59 64 63 65 68 68 69 69 68 67 69
16 16 16 18 21 23 25 27 29 31 33 34 33 33 32 36 39 40 38 40 44 45 45 49 51 52 56 59 55 53 51 51 49 47 53 59 62 67 69 69 70 68 69
14 16 18 20 22 25 26 27 29 32 34 35 36 34 34 37 38 36 33 35 38 41 41 43 44 43 45 50 54 53 53 51 51 50 46 45 48 53 65 67 64 66 69
17 18 20 22 25 26 26 28 30 31 33 34 35 35 35 35 36 36 35 34 32 35 38 39 40 43 43 43 42 42 45 48 52 51 48 45 43 46 49 57 62 63 60
17 18 19 20 20 21 23 25 26 25 23 22 22 23 25 27 27 28 28 30 30 31 32 35 38 39 39 35 34 35 38 40 39 40 40 43 45 44 44 47 51 57 60
21 21 20 19 20 22 24 24 22 19 15 12 12 15 16 18 17 19 22 22 25 25 23 25 26 27 27 28 28 30 31 32 32 32 36 36 38 41 42 44 46 48 52
24 24 23 23 23 24 24 22 20 19 16 13 12 13 12 12 13 15 15 16 15 13 17 20 21 22 24 26 29 30 28 27 26 28 31 35 38 39 42 44 45 46 47
26 26 25 26 27 27 27 24 23 23 24 20 16 14 11 8 8 9 10 11 12 13 12 15 15 17 21 22 20 22 26 29 29 28 29 34 38 40 42 45 46 48 48
30 30 30 30 31 31 30 31 31 31 30 27 24 21 19 15 13 12 13 13 13 14 15 15 18 21 23 25 26 26 26 22 24 28 32 37 42 43 42 46 48 49 51
Wind_Direction_850mb
202 206 208 207 207 207 207 207 207 207 205 205 206 203 202 197 191 187 179 169 152 136 99 81 73 66 63 66 68 62 49 42 38 34 30 30 32 40 37 36 42 43 42
203 204 204 204 206 207 208 209 210 209 207 208 210 211 210 206 202 198 193 187 199 182 139 96 73 71 65 70 71 68 55 45 40 34 39 43 40 40 46 41 45 47 48
202 202 202 204 205 207 209 210 211 210 211 212 211 211 212 212 211 209 208 209 211 206 197 173 117 88 63 70 78 73 59 43 36 35 36 46 52 53 54 52 50 50 51
203 202 203 205 206 208 210 212 213 215 213 214 215 215 218 220 218 217 217 221 223 217 220 214 182 157 123 76 69 75 60 47 38 32 33 43 51 53 55 56 53 52 55
203 203 203 205 205 208 211 214 216 216 217 218 220 221 223 223 225 224 227 231 233 232 234 235 239 245 228 227 211 334 60 46 36 38 38 44 53 55 52 53 53 50 51
205 204 205 208 209 211 213 217 218 216 217 222 223 225 227 228 228 228 230 236 238 239 240 241 245 248 249 254 241 277 323 36 31 35 47 46 53 54 55 48 48 47 47
204 205 208 212 213 214 216 219 220 220 223 225 231 233 232 234 238 240 239 242 243 245 249 253 253 255 256 255 261 249 262 286 333 8 37 45 46 54 51 48 37 44 44
203 206 209 211 213 217 219 223 223 225 224 228 232 235 237 238 244 244 245 245 248 249 249 254 256 258 259 258 258 259 263 268 279 304 345 39 40 39 47 43 39 28 39
203 205 208 211 213 217 222 226 227 228 230 233 235 239 241 241 246 248 250 251 252 254 254 256 256 257 260 261 257 266 258 262 263 266 281 312 2 16 16 26 26 24 18
200 201 205 208 213 218 219 225 228 229 231 233 236 241 244 243 249 254 258 259 259 260 259 261 263 261 260 263 266 259 266 265 261 264 263 269 279 293 309 321 341 3 12
192 196 200 204 209 212 217 222 226 229 231 235 237 242 248 249 252 257 260 265 267 264 262 261 262 260 256 260 261 261 264 261 265 261 267 263 265 269 276 285 299 315 332
188 188 191 196 201 207 211 218 225 233 238 242 244 247 251 255 256 259 263 267 266 268 267 263 260 258 258 258 260 263 262 262 261 263 261 266 267 266 264 274 279 288 297
176 178 181 185 189 192 199 209 220 232 240 247 256 258 256 257 258 259 262 267 268 268 267 266 260 258 258 259 260 262 260 262 262 261 260 254 263 264 266 264 269 273 280
161 160 157 152 144 140 142 151 157 193 234 256 271 275 262 260 268 263 262 262 265 268 272 267 263 260 256 258 258 260 264 266 268 268 267 265 259 263 266 267 269 270 271
139 133 130 130 130 133 139 147 166 215 242 255 263 271 274 272 264 267 272 272 273 275 272 270 268 263 259 259 260 260 263 269 270 272 271 271 269 263 265 270 269 270 272
131 131 131 130 128 131 144 282 285 279 282 287 286 286 286 290 287 283 281 279 275 271 269 270 272 273 271 268 267 265 262 266 268 269 272 272 269 269 267 265 270 270 272
139 144 164 214 253 268 275 277 278 279 281 282 282 285 289 289 287 287 287 285 282 278 275 275 274 273 275 273 272 270 268 268 267 272 268 270 269 267 266 265 265 269 269
227 250 262 267 272 276 278 279 281 282 284 288 289 291 290 289 289 289 289 287 285 281 279 278 279 280 282 281 279 278 279 274 275 272 270 267 268 268 266 264 264 266 269
257 269 276 280 283 284 286 288 290 293 295 297 295 295 291 287 287 287 286 283 283 283 282 281 280 279 279 282 281 280 282 282 282 279 274 272 269 265 265 265 266 265 266
272 276 279 282 285 287 291 296 300 303 305 306 304 301 297 294 292 289 279 275 277 281 285 285 288 288 286 284 285 285 284 281 282 283 282 281 278 276 266 266 267 265 265
272 278 281 285 289 293 296 300 301 302 301 301 302 302 300 295 292 290 291 290 288 284 282 282 286 288 289 289 289 290 290 287 285 281 285 286 285 283 282 273 267 267 268
266 271 274 276 278 282 285 287 287 288 292 298 303 306 309 307 299 298 295 296 297 295 293 289 285 282 282 284 284 285 289 292 294 296 294 291 289 287 287 285 282 275 269
262 264 262 260 262 268 271 273 274 278 287 304 328 333 323 313 302 296 290 292 294 299 300 292 288 289 289 289 291 289 287 293 297 296 297 297 299 297 294 291 289 286 282
264 261 260 262 266 268 268 268 263 266 268 281 300 316 327 332 323 313 307 297 288 285 289 295 295 296 301 296 291 289 290 290 290 295 300 302 300 298 299 300 299 297 294
260 261 265 266 270 270 265 260 260 259 259 265 271 279 283 301 314 323 329 319 318 322 319 318 333 329 323 335 325 307 296 293 291 288 290 295 298 299 298 297 298 300 298
264 264 264 265 266 262 258 259 261 260 260 261 264 263 262 266 277 286 292 299 303 311 319 327 332 332 335 336 337 335 338 325 302 292 286 285 288 293 296 299 301 300 299